| time (UTC) | temp C | wind direction | speed KPH | gust KPH | rain 1hr cm | rain 24hr cm | rain mn cm | humidity % | barometer mb |
| 20260510142524 | 21 | 36 | 6.4 | 14.5 | 0.00 | 4.37 | 0.03 | 100 | 1014.9 |
| 20260510142041 | 21 | 50 | 6.4 | 14.5 | 0.00 | 4.37 | 0.03 | 100 | 1014.9 |
| 20260510142037 | 21 | 63 | 8.0 | 14.5 | 0.00 | 0.00 | 0.03 | 100 | 1014.9 |
| 20260510141527 | 21 | 49 | 3.2 | 16.1 | 0.00 | 4.37 | 0.03 | 100 | 1014.9 |
| 20260510141042 | 21 | 82 | 11.3 | 16.1 | 0.00 | 4.37 | 0.03 | 100 | 1014.9 |
| 20260510141037 | 21 | 89 | 11.3 | 16.1 | 0.00 | 0.00 | 0.03 | 100 | 1014.9 |
| 20260510140552 | 21 | 73 | 8.0 | 16.1 | 0.00 | 4.37 | 0.03 | 100 | 1014.8 |
| 20260510140118 | 21 | 81 | 9.7 | 16.1 | 0.00 | 4.37 | 0.03 | 100 | 1014.7 |
| 20260510140112 | 21 | 81 | 11.3 | 16.1 | 0.00 | 0.00 | 0.03 | 100 | 1014.7 |
| 20260510135534 | 21 | 95 | 8.0 | 16.1 | 0.00 | 4.37 | 0.03 | 100 | 1014.7 |
| 20260510135051 | 21 | 73 | 8.0 | 14.5 | 0.00 | 4.37 | 0.03 | 100 | 1014.7 |
| 20260510135046 | 21 | 88 | 8.0 | 14.5 | 0.00 | 0.00 | 0.03 | 100 | 1014.7 |
| 20260510134601 | 20 | 92 | 6.4 | 14.5 | 0.00 | 4.37 | 0.03 | 100 | 1014.6 |
| 20260510134113 | 20 | 55 | 6.4 | 14.5 | 0.00 | 4.37 | 0.03 | 100 | 1014.6 |
| 20260510133514 | 20 | 46 | 9.7 | 14.5 | 0.00 | 4.37 | 0.03 | 100 | 1014.7 |
| 20260510133045 | 20 | 60 | 6.4 | 14.5 | 0.00 | 4.37 | 0.03 | 100 | 1014.6 |
| 20260510133038 | 20 | 65 | 8.0 | 14.5 | 0.00 | 0.00 | 0.03 | 100 | 1014.6 |
| 20260510132524 | 20 | 62 | 4.8 | 17.7 | 0.00 | 4.37 | 0.03 | 100 | 1014.4 |
| 20260510132041 | 20 | 46 | 8.0 | 17.7 | 0.00 | 4.37 | 0.03 | 100 | 1014.2 |
| 20260510132036 | 20 | 57 | 9.7 | 17.7 | 0.00 | 0.00 | 0.03 | 100 | 1014.2 |
| 20260510131530 | 20 | 50 | 3.2 | 12.9 | 0.00 | 4.37 | 0.03 | 100 | 1014.1 |
| 20260510131043 | 20 | 51 | 4.8 | 12.9 | 0.00 | 4.37 | 0.03 | 100 | 1014.1 |
| 20260510131039 | 20 | 57 | 6.4 | 12.9 | 0.00 | 0.00 | 0.03 | 100 | 1014.1 |
| 20260510130556 | 20 | 40 | 3.2 | 12.9 | 0.00 | 4.37 | 0.03 | 100 | 1014.0 |
| 20260510130127 | 20 | 49 | 4.8 | 11.3 | 0.00 | 4.37 | 0.03 | 100 | 1014.0 |
| 20260510130123 | 20 | 46 | 4.8 | 11.3 | 0.00 | 0.00 | 0.03 | 100 | 1014.0 |
| 20260510125529 | 20 | 17 | 4.8 | 11.3 | 0.00 | 4.37 | 0.03 | 100 | 1014.0 |
| 20260510125044 | 20 | 69 | 3.2 | 9.7 | 0.00 | 4.37 | 0.03 | 100 | 1013.9 |
| 20260510125040 | 20 | 70 | 3.2 | 9.7 | 0.00 | 0.00 | 0.03 | 100 | 1013.9 |
| 20260510124533 | 20 | 51 | 3.2 | 9.7 | 0.00 | 4.37 | 0.03 | 100 | 1013.7 |
| 20260510124046 | 20 | 59 | 3.2 | 9.7 | 0.00 | 4.37 | 0.03 | 100 | 1013.7 |
| 20260510124042 | 20 | 59 | 4.8 | 9.7 | 0.00 | 0.00 | 0.03 | 100 | 1013.7 |
| 20260510123532 | 20 | 65 | 3.2 | 9.7 | 0.00 | 4.37 | 0.03 | 100 | 1013.7 |
| 20260510123048 | 20 | 69 | 4.8 | 9.7 | 0.00 | 4.37 | 0.03 | 100 | 1013.6 |
| 20260510123044 | 20 | 58 | 4.8 | 9.7 | 0.00 | 0.00 | 0.03 | 100 | 1013.6 |
| 20260510122547 | 20 | 50 | 1.6 | 9.7 | 0.00 | 4.37 | 0.03 | 100 | 1013.6 |
| 20260510122058 | 20 | 51 | 1.6 | 9.7 | 0.00 | 4.37 | 0.03 | 100 | 1013.5 |
| 20260510122054 | 20 | 51 | 1.6 | 8.0 | 0.00 | 0.00 | 0.03 | 100 | 1013.5 |
| 20260510121547 | 20 | 49 | 3.2 | 9.7 | 0.00 | 4.37 | 0.03 | 100 | 1013.3 |
| 20260510121046 | 20 | 49 | 1.6 | 9.7 | 0.00 | 4.37 | 0.03 | 100 | 1013.2 |
| 20260510120548 | 20 | 59 | 1.6 | 9.7 | 0.00 | 4.37 | 0.03 | 100 | 1013.2 |
| 20260510120043 | 19 | 56 | 1.6 | 8.0 | 0.00 | 4.37 | 0.03 | 100 | 1013.1 |
| 20260510115543 | 19 | 83 | 0.0 | 9.7 | 0.00 | 4.37 | 0.03 | 100 | 1013.0 |
| 20260510115041 | 19 | 54 | 1.6 | 8.0 | 0.00 | 4.37 | 0.03 | 100 | 1012.8 |
| 20260510114550 | 19 | 54 | 3.2 | 8.0 | 0.00 | 4.37 | 0.03 | 100 | 1012.7 |
| 20260510114041 | 19 | 344 | 1.6 | 8.0 | 0.00 | 4.37 | 0.03 | 100 | 1012.7 |
| 20260510113539 | 18 | 339 | 1.6 | 8.0 | 0.00 | 4.37 | 0.03 | 100 | 1012.6 |
| 20260510113039 | 18 | 333 | 0.0 | 1.6 | 0.00 | 4.37 | 0.03 | 100 | 1012.5 |
| 20260510112538 | 18 | 333 | 0.0 | 1.6 | 0.00 | 4.37 | 0.03 | 100 | 1012.4 |
| 20260510112035 | 18 | 333 | 0.0 | 1.6 | 0.00 | 4.37 | 0.03 | 100 | 1012.3 |
| 20260510111538 | 18 | 333 | 0.0 | 1.6 | 0.00 | 4.37 | 0.03 | 100 | 1012.2 |
| 20260510111033 | 18 | 333 | 0.0 | 0.0 | 0.00 | 4.37 | 0.03 | 100 | 1012.1 |
| 20260510110535 | 18 | 333 | 0.0 | 1.6 | 0.00 | 4.37 | 0.03 | 100 | 1012.0 |
| 20260510110032 | 18 | 333 | 0.0 | 1.6 | 0.00 | 4.37 | 0.03 | 100 | 1011.9 |
| 20260510105532 | 18 | 333 | 0.0 | 1.6 | 0.00 | 4.37 | 0.03 | 100 | 1011.8 |
| 20260510105031 | 18 | 333 | 0.0 | 1.6 | 0.00 | 4.37 | 0.03 | 100 | 1011.7 |
| 20260510104530 | 18 | 333 | 0.0 | 3.2 | 0.00 | 4.37 | 0.03 | 100 | 1011.5 |
| 20260510104029 | 18 | 333 | 0.0 | 3.2 | 0.00 | 4.37 | 0.03 | 100 | 1011.4 |
| 20260510103530 | 18 | 333 | 0.0 | 1.6 | 0.00 | 4.37 | 0.03 | 100 | 1011.3 |
| 20260510103028 | 18 | 333 | 0.0 | 1.6 | 0.00 | 4.37 | 0.03 | 100 | 1011.3 |
| 20260510102528 | 18 | 333 | 0.0 | 3.2 | 0.00 | 4.37 | 0.03 | 100 | 1011.3 |
| 20260510102057 | 18 | 333 | 0.0 | 3.2 | 0.00 | 4.37 | 0.03 | 100 | 1011.3 |
| 20260510101600 | 18 | 333 | 0.0 | 3.2 | 0.00 | 4.37 | 0.03 | 100 | 1011.3 |
| 20260510101056 | 18 | 333 | 0.0 | 3.2 | 0.00 | 4.37 | 0.03 | 100 | 1011.2 |
| 20260510100556 | 18 | 333 | 0.0 | 3.2 | 0.00 | 4.37 | 0.03 | 100 | 1011.1 |
| 20260510100056 | 18 | 333 | 0.0 | 1.6 | 0.00 | 4.37 | 0.03 | 100 | 1011.0 |
| 20260510095556 | 18 | 333 | 0.0 | 1.6 | 0.00 | 4.37 | 0.03 | 100 | 1011.1 |
| 20260510095025 | 18 | 333 | 0.0 | 1.6 | 0.00 | 4.37 | 0.03 | 100 | 1011.0 |
| 20260510094540 | 18 | 333 | 0.0 | 0.0 | 0.00 | 4.37 | 0.03 | 100 | 1011.0 |
| 20260510094025 | 18 | 333 | 0.0 | 0.0 | 0.00 | 4.37 | 0.03 | 100 | 1011.1 |
| 20260510093525 | 18 | 333 | 0.0 | 0.0 | 0.00 | 4.37 | 0.03 | 100 | 1011.1 |
| 20260510093024 | 18 | 333 | 0.0 | 0.0 | 0.00 | 4.37 | 0.03 | 100 | 1011.1 |
| 20260510092524 | 18 | 333 | 0.0 | 0.0 | 0.00 | 4.37 | 0.03 | 100 | 1011.0 |
| 20260510092023 | 18 | 333 | 0.0 | 1.6 | 0.00 | 4.37 | 0.03 | 100 | 1011.0 |
| 20260510091525 | 18 | 333 | 0.0 | 1.6 | 0.00 | 4.37 | 0.03 | 100 | 1011.0 |
| 20260510091020 | 18 | 333 | 0.0 | 1.6 | 0.03 | 4.37 | 0.03 | 100 | 1011.1 |
| 20260510090520 | 18 | 333 | 0.0 | 1.6 | 0.03 | 4.37 | 0.03 | 100 | 1011.1 |
| 20260510090020 | 18 | 333 | 0.0 | 1.6 | 0.03 | 4.37 | 0.03 | 100 | 1010.9 |
| 20260510085521 | 18 | 333 | 0.0 | 0.0 | 0.03 | 4.37 | 0.03 | 100 | 1010.9 |
| 20260510085019 | 18 | 333 | 0.0 | 0.0 | 0.03 | 4.37 | 0.03 | 100 | 1010.9 |
| 20260510084521 | 18 | 333 | 0.0 | 0.0 | 0.03 | 4.37 | 0.03 | 100 | 1011.0 |
| 20260510084019 | 18 | 333 | 0.0 | 0.0 | 0.03 | 4.37 | 0.03 | 100 | 1011.0 |
| 20260510083519 | 18 | 333 | 0.0 | 0.0 | 0.03 | 4.37 | 0.03 | 100 | 1011.0 |
| 20260510083027 | 18 | 333 | 0.0 | 0.0 | 0.03 | 4.37 | 0.03 | 100 | 1011.0 |
| 20260510082518 | 18 | 333 | 0.0 | 1.6 | 0.03 | 4.37 | 0.03 | 100 | 1010.9 |
| 20260510082048 | 18 | 333 | 0.0 | 1.6 | 0.03 | 4.37 | 0.03 | 100 | 1010.9 |
| 20260510081549 | 18 | 333 | 0.0 | 1.6 | 0.03 | 4.37 | 0.03 | 100 | 1010.8 |
| 20260510081048 | 18 | 333 | 0.0 | 1.6 | 0.00 | 4.34 | 0.00 | 100 | 1010.9 |
| 20260510080550 | 18 | 333 | 0.0 | 1.6 | 0.00 | 4.34 | 0.00 | 100 | 1010.8 |
| 20260510080048 | 18 | 333 | 0.0 | 1.6 | 0.00 | 4.34 | 0.00 | 100 | 1010.8 |
| 20260510075550 | 18 | 333 | 0.0 | 1.6 | 0.00 | 4.34 | 0.00 | 100 | 1010.7 |
| 20260510075046 | 18 | 333 | 0.0 | 1.6 | 0.00 | 4.34 | 0.00 | 100 | 1010.6 |
| 20260510074548 | 18 | 333 | 0.0 | 1.6 | 0.00 | 4.34 | 0.00 | 100 | 1010.6 |
| 20260510074046 | 18 | 333 | 0.0 | 1.6 | 0.00 | 4.34 | 0.00 | 100 | 1010.5 |
| 20260510073546 | 18 | 333 | 0.0 | 1.6 | 0.00 | 4.34 | 0.00 | 100 | 1010.5 |
| 20260510073053 | 18 | 333 | 0.0 | 1.6 | 0.00 | 4.34 | 0.00 | 100 | 1010.6 |
| 20260510072545 | 18 | 333 | 0.0 | 1.6 | 0.00 | 4.34 | 0.00 | 100 | 1010.5 |
| 20260510072046 | 18 | 333 | 0.0 | 1.6 | 0.00 | 4.34 | 0.00 | 100 | 1010.5 |
| 20260510071545 | 18 | 333 | 0.0 | 1.6 | 0.00 | 4.34 | 0.00 | 100 | 1010.5 |
| 20260510071043 | 18 | 333 | 0.0 | 1.6 | 0.00 | 4.34 | 0.00 | 100 | 1010.5 |
| 20260510070543 | 18 | 333 | 0.0 | 1.6 | 0.00 | 4.34 | 0.00 | 100 | 1010.5 |
| 20260510070044 | 18 | 333 | 0.0 | 1.6 | 0.00 | 4.34 | 0.00 | 100 | 1010.5 |
| 20260510065546 | 18 | 333 | 0.0 | 1.6 | 0.00 | 4.34 | 0.00 | 100 | 1010.5 |
| 20260510065042 | 18 | 333 | 0.0 | 3.2 | 0.00 | 4.34 | 0.00 | 100 | 1010.5 |
| 20260510064541 | 18 | 333 | 0.0 | 3.2 | 0.00 | 4.34 | 0.00 | 100 | 1010.4 |
| 20260510064040 | 18 | 333 | 0.0 | 3.2 | 0.00 | 4.34 | 0.00 | 100 | 1010.4 |
| 20260510063542 | 18 | 333 | 0.0 | 1.6 | 0.00 | 4.34 | 0.00 | 100 | 1010.4 |
| 20260510063041 | 18 | 333 | 0.0 | 1.6 | 0.00 | 4.34 | 0.00 | 100 | 1010.3 |
| 20260510062542 | 18 | 333 | 0.0 | 1.6 | 0.00 | 4.34 | 0.00 | 100 | 1010.4 |
| 20260510062038 | 18 | 333 | 0.0 | 1.6 | 0.00 | 4.34 | 0.00 | 100 | 1010.5 |
| 20260510061538 | 18 | 333 | 0.0 | 1.6 | 0.00 | 4.34 | 0.00 | 100 | 1010.5 |
| 20260510061038 | 18 | 333 | 0.0 | 1.6 | 0.00 | 4.34 | 0.00 | 100 | 1010.6 |
| 20260510060537 | 18 | 331 | 0.0 | 1.6 | 0.00 | 4.34 | 0.00 | 100 | 1010.8 |
| 20260510060042 | 18 | 331 | 0.0 | 1.6 | 0.00 | 4.34 | 0.00 | 100 | 1010.8 |
| 20260510055536 | 18 | 331 | 0.0 | 3.2 | 0.00 | 4.34 | 0.00 | 100 | 1010.8 |
| 20260510055036 | 19 | 331 | 0.0 | 3.2 | 0.00 | 4.34 | 0.00 | 100 | 1011.0 |
| 20260510054539 | 19 | 331 | 0.0 | 8.0 | 0.00 | 4.34 | 0.00 | 100 | 1010.9 |
| 20260510054033 | 19 | 331 | 3.2 | 9.7 | 0.00 | 4.34 | 0.00 | 100 | 1011.0 |
| 20260510053532 | 19 | 329 | 3.2 | 9.7 | 0.00 | 4.34 | 0.00 | 100 | 1010.9 |
| 20260510053033 | 19 | 325 | 4.8 | 9.7 | 0.00 | 4.34 | 0.00 | 100 | 1010.9 |
| 20260510052531 | 19 | 355 | 3.2 | 8.0 | 0.00 | 4.34 | 0.00 | 100 | 1010.8 |
| 20260510052031 | 19 | 355 | 1.6 | 6.4 | 0.00 | 4.34 | 0.00 | 100 | 1010.7 |
| 20260510051534 | 19 | 355 | 0.0 | 6.4 | 0.00 | 4.34 | 0.00 | 100 | 1010.6 |
| 20260510051029 | 19 | 355 | 1.6 | 6.4 | 0.00 | 4.34 | 0.00 | 100 | 1010.6 |
| 20260510050532 | 19 | 355 | 0.0 | 8.0 | 0.00 | 4.34 | 0.00 | 100 | 1010.5 |
| 20260510050128 | 19 | 355 | 0.0 | 11.3 | 0.00 | 4.34 | 0.00 | 100 | 1010.4 |
| 20260510045531 | 19 | 355 | 3.2 | 9.7 | 0.00 | 4.34 | 0.36 | 100 | 1010.4 |
| 20260510045027 | 20 | 176 | 0.0 | 9.7 | 0.00 | 4.34 | 0.36 | 100 | 1010.1 |
| 20260510044525 | 20 | 176 | 1.6 | 9.7 | 0.00 | 4.34 | 0.36 | 100 | 1010.0 |
| 20260510044025 | 20 | 166 | 0.0 | 6.4 | 0.00 | 4.34 | 0.36 | 100 | 1009.8 |
| 20260510043525 | 20 | 163 | 0.0 | 12.9 | 0.00 | 4.34 | 0.36 | 100 | 1009.8 |
| 20260510043027 | 20 | 146 | 0.0 | 12.9 | 0.00 | 4.34 | 0.36 | 100 | 1009.7 |
| 20260510042523 | 20 | 159 | 1.6 | 14.5 | 0.00 | 4.34 | 0.36 | 100 | 1009.8 |
| 20260510042023 | 20 | 170 | 1.6 | 16.1 | 0.00 | 4.34 | 0.36 | 100 | 1009.9 |
| 20260510041523 | 20 | 159 | 4.8 | 19.3 | 0.00 | 4.34 | 0.36 | 100 | 1009.9 |
| 20260510041022 | 20 | 174 | 6.4 | 20.9 | 0.00 | 4.34 | 0.36 | 100 | 1010.1 |
| 20260510040522 | 20 | 171 | 8.0 | 20.9 | 0.00 | 4.34 | 0.36 | 100 | 1010.2 |
| 20260510040022 | 20 | 181 | 8.0 | 17.7 | 0.00 | 4.34 | 0.36 | 100 | 1010.4 |
| 20260510035523 | 20 | 176 | 9.7 | 17.7 | 0.00 | 4.34 | 0.36 | 100 | 1010.5 |
| 20260510035022 | 20 | 182 | 11.3 | 17.7 | 0.00 | 4.34 | 0.36 | 100 | 1010.7 |
| 20260510034518 | 20 | 178 | 8.0 | 17.7 | 0.00 | 4.34 | 0.36 | 100 | 1010.7 |
| 20260510034008 | 20 | 188 | 4.8 | 17.7 | 0.00 | 4.34 | 0.36 | 100 | 1010.7 |
| 20260510033512 | 20 | 184 | 3.2 | 14.5 | 0.00 | 4.34 | 0.36 | 100 | 1010.7 |
| 20260510033008 | 20 | 186 | 4.8 | 12.9 | 0.00 | 4.34 | 0.36 | 100 | 1010.6 |
| 20260510032509 | 20 | 178 | 3.2 | 11.3 | 0.00 | 4.34 | 0.36 | 100 | 1010.7 |
| 20260510032007 | 20 | 177 | 1.6 | 9.7 | 0.00 | 4.34 | 0.36 | 100 | 1010.9 |
| 20260510031510 | 20 | 182 | 0.0 | 9.7 | 0.00 | 4.34 | 0.36 | 100 | 1011.0 |
| 20260510031006 | 20 | 182 | 3.2 | 9.7 | 0.00 | 4.34 | 0.36 | 100 | 1011.3 |
| 20260510030609 | 20 | 182 | 3.2 | 9.7 | 0.00 | 4.34 | 0.36 | 100 | 1011.5 |
| 20260510030119 | 20 | 175 | 4.8 | 8.0 | 0.00 | 0.00 | 0.36 | 100 | 1011.6 |
| 20260510030019 | 20 | 175 | 1.6 | 8.0 | 0.00 | 4.34 | 0.36 | 100 | 1011.7 |
| 20260510025533 | 20 | 173 | 1.6 | 8.0 | 0.00 | 4.34 | 0.36 | 100 | 1011.4 |
| 20260510025049 | 20 | 173 | 3.2 | 8.0 | 0.00 | 4.34 | 0.36 | 100 | 1011.5 |
| 20260510025045 | 20 | 173 | 3.2 | 8.0 | 0.00 | 0.00 | 0.36 | 100 | 1011.6 |
| 20260510024631 | 20 | 170 | 0.0 | 6.4 | 0.00 | 4.34 | 0.36 | 100 | 1011.5 |
| 20260510024056 | 20 | 170 | 1.6 | 6.4 | 0.00 | 0.00 | 0.36 | 100 | 1011.5 |
| 20260510024004 | 20 | 170 | 1.6 | 6.4 | 0.00 | 4.34 | 0.36 | 100 | 1011.5 |
| 20260510023520 | 20 | 123 | 0.0 | 1.6 | 0.00 | 4.34 | 0.36 | 100 | 1011.4 |
| 20260510023040 | 20 | 123 | 0.0 | 1.6 | 0.00 | 4.34 | 0.36 | 100 | 1011.4 |
| 20260510023036 | 20 | 123 | 0.0 | 1.6 | 0.00 | 0.00 | 0.36 | 100 | 1011.5 |
| 20260510022525 | 20 | 123 | 0.0 | 1.6 | 0.00 | 4.34 | 0.36 | 100 | 1011.4 |
| 20260510022040 | 20 | 123 | 0.0 | 1.6 | 0.00 | 4.34 | 0.36 | 100 | 1011.3 |
| 20260510022037 | 20 | 123 | 0.0 | 1.6 | 0.00 | 0.00 | 0.36 | 100 | 1011.3 |
| 20260510021533 | 20 | 123 | 0.0 | 1.6 | 0.00 | 4.34 | 0.36 | 100 | 1011.4 |
| 20260510021051 | 20 | 123 | 0.0 | 1.6 | 0.00 | 4.34 | 0.36 | 100 | 1011.4 |
| 20260510021048 | 20 | 123 | 0.0 | 1.6 | 0.00 | 0.00 | 0.36 | 100 | 1011.4 |
| 20260510020606 | 20 | 123 | 0.0 | 1.6 | 0.00 | 4.34 | 0.36 | 100 | 1011.3 |
| 20260510020122 | 20 | 123 | 0.0 | 1.6 | 0.00 | 0.00 | 0.36 | 100 | 1011.3 |
| 20260510020002 | 20 | 123 | 0.0 | 1.6 | 0.00 | 4.34 | 0.36 | 100 | 1011.2 |
| 20260510015604 | 20 | 123 | 0.0 | 0.0 | 0.00 | 4.37 | 0.36 | 100 | 1011.1 |
| 20260510015008 | 20 | 123 | 0.0 | 0.0 | 0.00 | 4.37 | 0.36 | 100 | 1011.2 |
| 20260510014518 | 20 | 123 | 0.0 | 1.6 | 0.00 | 4.37 | 0.36 | 100 | 1011.1 |
| 20260510014048 | 20 | 123 | 0.0 | 1.6 | 0.00 | 4.37 | 0.36 | 100 | 1011.1 |
| 20260510014043 | 20 | 123 | 0.0 | 1.6 | 0.00 | 0.00 | 0.36 | 100 | 1011.1 |
| 20260510013538 | 20 | 123 | 0.0 | 0.0 | 0.00 | 4.37 | 0.36 | 100 | 1011.1 |
| 20260510013052 | 20 | 123 | 0.0 | 1.6 | 0.00 | 4.37 | 0.36 | 100 | 1011.1 |
| 20260510013047 | 20 | 123 | 0.0 | 1.6 | 0.00 | 0.00 | 0.36 | 100 | 1011.1 |
| 20260510012622 | 20 | 123 | 0.0 | 1.6 | 0.00 | 4.37 | 0.36 | 100 | 1011.1 |
| 20260510012140 | 20 | 123 | 0.0 | 1.6 | 0.00 | 4.37 | 0.36 | 100 | 1010.9 |
| 20260510012048 | 20 | 123 | 0.0 | 1.6 | 0.00 | 0.00 | 0.36 | 100 | 1010.9 |
| 20260510011516 | 20 | 123 | 0.0 | 3.2 | 0.00 | 4.37 | 0.36 | 100 | 1010.7 |
| 20260510011042 | 20 | 124 | 0.0 | 3.2 | 0.00 | 4.37 | 0.36 | 100 | 1010.6 |
| 20260510011038 | 20 | 126 | 0.0 | 3.2 | 0.00 | 0.00 | 0.36 | 100 | 1010.6 |
| 20260510010600 | 20 | 112 | 0.0 | 3.2 | 0.00 | 4.37 | 0.36 | 100 | 1010.6 |
| 20260510010116 | 20 | 223 | 0.0 | 3.2 | 0.00 | 4.37 | 0.36 | 100 | 1010.5 |
| 20260510010111 | 20 | 223 | 0.0 | 3.2 | 0.00 | 0.00 | 0.36 | 100 | 1010.5 |
| 20260510005620 | 20 | 129 | 0.0 | 8.0 | 0.00 | 5.23 | 0.36 | 100 | 1010.6 |
| 20260510005140 | 20 | 126 | 0.0 | 8.0 | 0.00 | 5.23 | 0.36 | 100 | 1010.5 |
| 20260510005046 | 20 | 24 | 0.0 | 4.8 | 0.00 | 0.00 | 0.36 | 100 | 1010.4 |
| 20260510004508 | 20 | 136 | 0.0 | 8.0 | 0.00 | 5.23 | 0.36 | 100 | 1010.2 |
| 20260510004039 | 20 | 136 | 1.6 | 9.7 | 0.00 | 5.23 | 0.36 | 100 | 1010.2 |
| 20260510004034 | 20 | 136 | 1.6 | 9.7 | 0.00 | 0.00 | 0.36 | 100 | 1010.2 |
| 20260510003525 | 20 | 123 | 0.0 | 9.7 | 0.00 | 5.23 | 0.36 | 100 | 1010.2 |
| 20260510003043 | 20 | 169 | 0.0 | 3.2 | 0.00 | 5.23 | 0.36 | 100 | 1010.1 |
| 20260510003038 | 20 | 169 | 0.0 | 3.2 | 0.00 | 0.00 | 0.36 | 100 | 1010.1 |
| 20260510002619 | 20 | 131 | 0.0 | 3.2 | 0.00 | 5.23 | 0.36 | 100 | 1010.1 |
| 20260510002137 | 20 | 131 | 0.0 | 3.2 | 0.00 | 5.23 | 0.36 | 100 | 1009.9 |
| 20260510002044 | 20 | 131 | 0.0 | 3.2 | 0.00 | 0.00 | 0.36 | 100 | 1009.9 |
| 20260510001508 | 20 | 131 | 0.0 | 8.0 | 0.00 | 5.23 | 0.36 | 100 | 1009.8 |
| 20260510001109 | 20 | 131 | 1.6 | 8.0 | 0.00 | 0.00 | 0.36 | 100 | 1009.8 |
| 20260510001022 | 20 | 131 | 1.6 | 8.0 | 0.00 | 5.23 | 0.36 | 100 | 1009.7 |
| 20260510000556 | 20 | 130 | 0.0 | 6.4 | 0.00 | 5.23 | 0.36 | 100 | 1009.8 |
| 20260510000111 | 20 | 185 | 0.0 | 6.4 | 0.00 | 5.23 | 0.36 | 100 | 1010.0 |
| 20260510000108 | 20 | 185 | 0.0 | 6.4 | 0.00 | 0.00 | 0.36 | 100 | 1010.0 |
| 20260509235527 | 20 | 218 | 0.0 | 1.6 | 0.00 | 5.23 | 0.36 | 100 | 1009.9 |
| 20260509235043 | 20 | 218 | 0.0 | 3.2 | 0.00 | 5.23 | 0.36 | 100 | 1009.8 |
| 20260509235039 | 20 | 218 | 0.0 | 3.2 | 0.00 | 0.00 | 0.36 | 100 | 1009.8 |
| 20260509234553 | 20 | 128 | 0.0 | 3.2 | 0.03 | 5.23 | 0.36 | 100 | 1009.7 |
| 20260509234109 | 20 | 128 | 0.0 | 3.2 | 0.05 | 5.23 | 0.36 | 100 | 1009.8 |
| 20260509233519 | 19 | 128 | 0.0 | 3.2 | 0.05 | 5.23 | 0.36 | 100 | 1010.0 |
| 20260509233039 | 20 | 128 | 0.0 | 3.2 | 0.05 | 5.23 | 0.36 | 100 | 1009.9 |
| 20260509233035 | 20 | 128 | 1.6 | 3.2 | 0.05 | 0.00 | 0.36 | 100 | 1009.9 |
| 20260509232526 | 19 | 126 | 0.0 | 8.0 | 0.05 | 5.23 | 0.36 | 100 | 1010.0 |
| 20260509232041 | 19 | 126 | 1.6 | 8.0 | 0.05 | 5.23 | 0.36 | 100 | 1009.8 |
| 20260509232036 | 20 | 126 | 3.2 | 8.0 | 0.05 | 0.00 | 0.36 | 100 | 1009.8 |
| 20260509231539 | 19 | 148 | 0.0 | 6.4 | 0.08 | 5.23 | 0.36 | 100 | 1009.8 |
| 20260509231051 | 19 | 124 | 1.6 | 4.8 | 0.08 | 5.23 | 0.36 | 100 | 1009.7 |
| 20260509231047 | 20 | 124 | 3.2 | 6.4 | 0.08 | 0.00 | 0.36 | 100 | 1009.7 |
| 20260509230555 | 19 | 124 | 0.0 | 1.6 | 0.08 | 5.23 | 0.36 | 100 | 1009.8 |
| 20260509230114 | 19 | 124 | 0.0 | 1.6 | 0.10 | 5.23 | 0.36 | 100 | 1009.9 |
| 20260509230108 | 20 | 124 | 0.0 | 1.6 | 0.10 | 0.00 | 0.36 | 100 | 1009.9 |
| 20260509225615 | 19 | 124 | 0.0 | 1.6 | 0.10 | 5.66 | 0.36 | 100 | 1010.0 |
| 20260509225048 | 19 | 124 | 0.0 | 3.2 | 0.13 | 5.66 | 0.36 | 100 | 1010.5 |
| 20260509225041 | 20 | 124 | 0.0 | 3.2 | 0.13 | 0.00 | 0.36 | 100 | 1010.5 |
| 20260509224558 | 19 | 124 | 0.0 | 3.2 | 0.10 | 5.64 | 0.33 | 100 | 1010.4 |
| 20260509224108 | 19 | 213 | 0.0 | 3.2 | 0.10 | 5.61 | 0.30 | 100 | 1010.5 |
| 20260509223524 | 19 | 213 | 0.0 | 8.0 | 0.13 | 5.61 | 0.30 | 100 | 1010.5 |
| 20260509223038 | 19 | 192 | 1.6 | 8.0 | 0.18 | 5.61 | 0.30 | 100 | 1010.4 |
| 20260509223034 | 20 | 192 | 1.6 | 8.0 | 0.18 | 0.00 | 0.30 | 100 | 1010.4 |
| 20260509222549 | 19 | 182 | 0.0 | 3.2 | 0.20 | 5.61 | 0.30 | 100 | 1010.1 |
| 20260509222104 | 19 | 182 | 0.0 | 6.4 | 0.23 | 5.61 | 0.30 | 100 | 1010.1 |
| 20260509221533 | 19 | 150 | 0.0 | 3.2 | 0.23 | 5.59 | 0.28 | 100 | 1009.9 |
| 20260509221045 | 19 | 150 | 0.0 | 1.6 | 0.23 | 5.59 | 0.28 | 100 | 1009.7 |
| 20260509221041 | 19 | 150 | 0.0 | 1.6 | 0.23 | 0.00 | 0.28 | 100 | 1009.7 |
| 20260509220534 | 19 | 150 | 0.0 | 3.2 | 0.23 | 5.59 | 0.28 | 100 | 1009.7 |
| 20260509220110 | 19 | 150 | 0.0 | 3.2 | 0.23 | 5.56 | 0.25 | 100 | 1009.5 |
| 20260509215631 | 19 | 150 | 0.0 | 1.6 | 0.23 | 8.92 | 0.25 | 100 | 1009.7 |
| 20260509215051 | 19 | 150 | 0.0 | 1.6 | 0.20 | 0.00 | 0.23 | 100 | 1009.8 |
| 20260509215005 | 19 | 150 | 0.0 | 1.6 | 0.20 | 8.89 | 0.23 | 100 | 1009.8 |
| 20260509214521 | 19 | 150 | 0.0 | 1.6 | 0.18 | 8.86 | 0.20 | 100 | 1009.8 |
| 20260509214040 | 19 | 150 | 0.0 | 3.2 | 0.15 | 8.84 | 0.18 | 100 | 1009.8 |
| 20260509214036 | 19 | 150 | 0.0 | 3.2 | 0.15 | 0.00 | 0.18 | 100 | 1009.8 |
| 20260509213524 | 19 | 355 | 0.0 | 3.2 | 0.15 | 8.84 | 0.18 | 100 | 1009.9 |
| 20260509213102 | 19 | 355 | 0.0 | 3.2 | 0.10 | 8.79 | 0.13 | 100 | 1009.9 |
| 20260509213043 | 19 | 355 | 0.0 | 3.2 | 0.10 | 0.00 | 0.13 | 100 | 1009.9 |
| 20260509212534 | 19 | 341 | 0.0 | 3.2 | 0.08 | 8.76 | 0.10 | 100 | 1010.0 |
| 20260509212046 | 19 | 267 | 0.0 | 6.4 | 0.05 | 8.74 | 0.08 | 100 | 1010.5 |
| 20260509212042 | 19 | 267 | 0.0 | 6.4 | 0.05 | 0.00 | 0.08 | 100 | 1010.5 |
| 20260509211533 | 19 | 267 | 0.0 | 6.4 | 0.05 | 8.71 | 0.05 | 100 | 1010.5 |
| 20260509211048 | 19 | 266 | 0.0 | 3.2 | 0.05 | 8.71 | 0.05 | 100 | 1010.6 |
| 20260509211043 | 19 | 266 | 1.6 | 3.2 | 0.05 | 0.00 | 0.05 | 100 | 1010.6 |
| 20260509210600 | 19 | 355 | 0.0 | 1.6 | 0.05 | 8.71 | 0.05 | 100 | 1010.3 |
| 20260509210124 | 19 | 355 | 0.0 | 1.6 | 0.03 | 8.69 | 0.03 | 100 | 1010.0 |
| 20260509210120 | 19 | 355 | 0.0 | 1.6 | 0.00 | 0.00 | 0.03 | 100 | 1010.0 |
| 20260509205631 | 19 | 275 | 0.0 | 6.4 | 0.03 | 8.69 | 0.03 | 100 | 1009.9 |
| 20260509205053 | 19 | 68 | 0.0 | 6.4 | 0.00 | 0.00 | 0.03 | 100 | 1009.7 |
| 20260509205007 | 18 | 68 | 0.0 | 6.4 | 0.03 | 8.69 | 0.03 | 100 | 1009.7 |
| 20260509204522 | 18 | 111 | 0.0 | 6.4 | 0.03 | 8.69 | 0.03 | 100 | 1009.8 |
| 20260509204039 | 18 | 111 | 0.0 | 3.2 | 0.03 | 8.69 | 0.03 | 100 | 1009.7 |
| 20260509204035 | 19 | 111 | 0.0 | 8.0 | 0.00 | 0.00 | 0.03 | 100 | 1009.7 |
| 20260509203524 | 18 | 111 | 0.0 | 11.3 | 0.03 | 8.69 | 0.03 | 100 | 1009.6 |
| 20260509203053 | 18 | 109 | 3.2 | 16.1 | 0.03 | 8.69 | 0.03 | 100 | 1009.5 |
| 20260509203048 | 19 | 109 | 3.2 | 16.1 | 0.00 | 0.00 | 0.03 | 100 | 1009.5 |
| 20260509202603 | 18 | 103 | 6.4 | 17.7 | 0.03 | 8.69 | 0.03 | 100 | 1009.4 |
| 20260509202010 | 18 | 124 | 8.0 | 19.3 | 0.03 | 8.69 | 0.03 | 100 | 1009.4 |
| 20260509201527 | 18 | 102 | 9.7 | 19.3 | 0.00 | 8.66 | 0.00 | 100 | 1009.4 |
| 20260509201045 | 18 | 106 | 6.4 | 17.7 | 0.00 | 8.66 | 0.00 | 100 | 1009.6 |
| 20260509201038 | 18 | 128 | 6.4 | 17.7 | 0.00 | 0.00 | 0.00 | 100 | 1009.6 |
| 20260509200545 | 18 | 106 | 11.3 | 17.7 | 0.00 | 8.66 | 0.00 | 100 | 1009.7 |
| 20260509200058 | 18 | 106 | 12.9 | 17.7 | 0.00 | 8.66 | 0.00 | 100 | 1009.8 |
| 20260509195538 | 18 | 107 | 4.8 | 11.3 | 0.00 | 8.66 | 0.00 | 100 | 1010.1 |